Regional Weather Roundup
Issued by NWS

Home | Current Version | Previous Version | Graphics & Text | Print | Product List | Glossary On
Versions: 1 2 3 4 5 6 7 8 9 10 11 12 13 14 15 16 17 18 19 20 21 22 23 24 25 26 27 28 29 30 31 32 33 34 35 36 37 38 39 40 41 42 43 44 45 46 47 48 49 50
009
ASUS45 KPSR 201010
RWRAZ

ARIZONA HOURLY REGIONAL WEATHER ROUNDUP
NATIONAL WEATHER SERVICE PHOENIX AZ
300 AM MST SUN AUG 20 2017

NOTE: FAIR INDICATES FEW OR NO CLOUDS BELOW 12,000 FEET WITH NO
SIGNIFICANT WEATHER AND/OR OBSTRUCTIONS TO VISIBILITY.

AZZ001>003-036-201100-
NORTHWEST ARIZONA

CITY           SKY/WX    TMP DP  RH WIND       PRES   REMARKS
BULLHEAD CITY  FAIR      88  45  22 CALM      29.77S
KINGMAN        FAIR      75  46  35 SE9       29.99F
$$

AZZ004>008-015-016-018-201100-
NORTH CENTRAL ARIZONA

CITY           SKY/WX    TMP DP  RH WIND       PRES   REMARKS
GRAND CANYON   FAIR      48  38  68 CALM      30.25R
WILLIAMS       FAIR      54  45  71 S5        30.24F
PRESCOTT       FAIR      64  51  62 S5        30.12F
FLAGSTAFF      CLOUDY    57  45  64 W5        30.27S
PAYSON           N/A     70  43  37 CALM      30.16R
PAGE           FAIR      80  37  21 NW3       30.02R
$$

AZZ009>014-017-201100-
NORTHEAST ARIZONA

CITY           SKY/WX    TMP DP  RH WIND       PRES   REMARKS
WINSLOW        FAIR      75  45  34 CALM      30.11R
SAINT JOHNS    CLOUDY    70  46  42 CALM      30.17S
WINDOW ROCK    FAIR      68  39  34 SW3       30.20F
SHOW LOW       MOCLDY    68  45  42 S14       30.23S
$$

AZZ540-542>544-546-548-201100-
GREATER PHOENIX AREA

CITY           SKY/WX    TMP DP  RH WIND       PRES   REMARKS
PHOENIX        FAIR      91  54  28 NW8       29.83R
BUCKEYE        FAIR      82  52  34 NW5       29.85S
LUKE AFB       FAIR      88  52  28 W5        29.82R
DEER VALLEY    FAIR      85  49  28 CALM      29.86S
SCOTTSDALE     FAIR      88  49  25 N3        29.88S
MESA-GATEWAY   FAIR      81  52  36 SE8       29.88R
$$

AZZ539-553-201100-
SOUTHWEST MARICOPA COUNTY AND PINAL COUNTY

CITY           SKY/WX    TMP DP  RH WIND       PRES   REMARKS
CASA GRANDE    FAIR      80  58  46 NE3       29.88S
GILA BEND      FAIR      84  54  35 SW3       29.82S
$$

AZZ503-504-507>509-201100-
SOUTHEAST ARIZONA

CITY           SKY/WX    TMP DP  RH WIND       PRES   REMARKS
TUCSON         NOT AVBL
DAVIS-MONTHAN  FAIR      77  54  45 E5        29.98F
NOGALES        CLOUDY    73  57  57 VRB3      30.08F
SIERRA VISTA   LGT RAIN  70  56  61 CALM      30.14F
DOUGLAS        CLOUDY    66  64  93 NE7       30.11S
SAFFORD        CLOUDY    79  53  40 E8        30.02S
$$

AZZ532-201100-
SOUTHWEST ARIZONA

CITY           SKY/WX    TMP DP  RH WIND       PRES   REMARKS
YUMA           FAIR      84  75  74 S3        29.77S
$$

CAZ041-043-047-048-061-525>527-560>570-201100-
SOUTHERN CALIFORNIA

CITY           SKY/WX    TMP DP  RH WIND       PRES   REMARKS
DOWNTOWN L.A.  CLOUDY    69  60  73 CALM      29.92F
L.A. AIRPORT   CLOUDY    67  61  81 W3        29.92F
SAN DIEGO      CLOUDY    69  60  73 VRB5      29.93F
BURBANK        MOCLDY    64  58  80 SW3       29.92F
ONTARIO        FAIR      63  59  87 SW6       29.93F
RIVERSIDE      FAIR      63  61  93 CALM      29.93F
PALM SPRINGS   FAIR      81  56  42 S3        29.79F
EL CENTRO NAS  FAIR      81  38  21 W7        29.77S
IMPERIAL       FAIR      79  48  33 W7        29.74F
BLYTHE         FAIR      85  58  39 S8        29.78S
NEEDLES        FAIR      92  42  17 W3        29.79R
$$

NVZ020-UTZ003-201100-
SOUTHERN NEVADA-UTAH

CITY           SKY/WX    TMP DP  RH WIND       PRES   REMARKS
LAS VEGAS      FAIR      85  44  23 S3        29.86S
SALT LAKE CITY FAIR      74  43  32 S7        29.99R
$$

NMZ009-TXZ055-201100-
NEW MEXICO-WEST TEXAS

CITY           SKY/WX    TMP DP  RH WIND       PRES   REMARKS
ALBUQUERQUE    CLOUDY    70  47  43 SE6       30.15F
EL PASO        MOCLDY    68  65  90 N8        30.07F
$$


........................KEY........................
SKY/WX - SKY CONDITION/WEATHER
TMP    - TEMPERATURE IN FAHRENHEIT
DP     - DEW POINT IN FAHRENHEIT
RH     - RELATIVE HUMIDITY IN PERCENT
WIND   - DIRECTION AND SPEED IN MILES PER HOUR (MPH)
VRB    - VARIABLE WIND DIRECTION
PRES   - MEAN SEA LEVEL PRESSURE IN INCHES OF MERCURY
         F - FALLING PRESSURE   R - RISING PRESSURE
         S - STEADY PRESSURE
VSB    - VISIBILITY IN MILES
HX     - HEAT INDEX IN FAHRENHEIT
WCI    - WIND CHILL INDEX IN FAHRENHEIT
TC     - TEMPERATURE IN CELSIUS WHICH IS ALSO KNOWN AS
         TEMPERATURE IN CENTIGRADE
AFB    - AIR FORCE BASE
         LUKE AFB IS LUKE AIR FORCE BASE
         DAVIS-MONTHAN IS DAVIS-MONTHAN AIR FORCE BASE
NAS    - NAVAL AIR STATION
         EL CENTRO NAS IS EL CENTRO NAVAL AIR STATION
N/A    - NOT AVAILABLE





USA.gov is the U.S. government's official web portal to all federal, state and local government web resources and services.